Weather History for Monroe, MI

Change the Weather History Date:

Sunday, January 26, 2014

  Actual Average Record
Temperature  
Mean Temperature 14 °F -  
Max Temperature 28 °F 33 °F 68 °F (1950)
Min Temperature 1 °F 16 °F -6 °F (1936)
Degree Days  
Heating Degree Days 50    
Moisture  
Dew Point 10 °F    
Average Humidity 80    
Maximum Humidity 92    
Minimum Humidity 68    
Precipitation  
Precipitation 0.00 in - - ()
Sea Level Pressure  
Sea Level Pressure 29.56 in    
Wind  
Wind Speed 4 mph (SW)    
Max Wind Speed 18 mph    
Max Gust Speed 28 mph    
Visibility 8 miles    
Events Snow    
Averages and records for this station are not official NWS values.
T = Trace of Precipitation, MM = Missing Value Source: NWS Daily Summary

Daily Weather History Graph

Daily Weather History Graph

Search for Another Location

Airport:

Trip Planner

Search our weather history database for the weather conditions in past years. The results will help you decide how hot, cold, wet, or windy it might be!

Date:

Astronomy

Jan. 26, 2014 Rise Set
Actual Time 7:51 AM EST 5:41 PM EST
Civil Twilight 7:21 AM EST 6:11 PM EST
Nautical Twilight 6:48 AM EST 6:44 PM EST
Astronomical Twilight 6:15 AM EST 7:17 PM EST
Moon 3:28 AM EST (1/26) 1:29 PM EST (1/26)
Length of Visible Light 10h 49m
Length of Day
9h 49m
Waning Crescent, 24% of the Moon is Illuminated
Jan 26
Waning Crescent
Jan 30
New
Feb 6
First Quarter
Feb 14
Full
Feb 22
Last Quarter

Hourly Weather History & Observations

Time (EST) Temp. Windchill Dew Point Humidity Pressure Visibility Wind Dir Wind Speed Gust Speed Precip Events Conditions
12:12 AM 8.6 °F - 3.2 °F 79% 29.77 in 5.0 mi Calm Calm - N/A   Haze
12:33 AM 6.8 °F - 3.2 °F 85% 29.78 in 7.0 mi Calm Calm - N/A   Overcast
12:53 AM 6.8 °F - 3.2 °F 85% 29.77 in 5.0 mi Calm Calm - N/A Snow Light Snow
1:13 AM 5.0 °F - 1.4 °F 85% 29.77 in 5.0 mi Calm Calm - N/A Snow Light Snow
1:33 AM 3.2 °F - 1.4 °F 92% 29.77 in 10.0 mi Calm Calm - N/A   Clear
1:53 AM 1.4 °F - -2.2 °F 85% 29.76 in 10.0 mi Calm Calm - N/A   Clear
2:13 AM 1.4 °F - -2.2 °F 85% 29.76 in 10.0 mi Calm Calm - N/A   Mostly Cloudy
2:33 AM 1.4 °F - -0.4 °F 92% 29.75 in 10.0 mi Calm Calm - N/A   Mostly Cloudy
2:53 AM 3.2 °F - 1.4 °F 92% 29.75 in 10.0 mi Calm Calm - N/A   Mostly Cloudy
3:14 AM 3.2 °F - -0.4 °F 85% 29.74 in 10.0 mi Calm Calm - N/A   Mostly Cloudy
3:34 AM 3.2 °F - 1.4 °F 92% 29.75 in 10.0 mi Calm Calm - N/A   Overcast
3:54 AM 6.8 °F - 1.4 °F 79% 29.75 in 10.0 mi Calm Calm - N/A   Overcast
4:14 AM 8.6 °F - 3.2 °F 79% 29.73 in 10.0 mi Calm Calm - N/A   Overcast
4:34 AM 8.6 °F - 5.0 °F 85% 29.71 in 10.0 mi Calm Calm - N/A   Overcast
4:54 AM 8.6 °F - 5.0 °F 85% 29.72 in 10.0 mi Calm Calm - N/A   Overcast
5:14 AM 8.6 °F - 3.2 °F 79% 29.71 in 10.0 mi Calm Calm - N/A   Overcast
5:34 AM 8.6 °F - 3.2 °F 79% 29.72 in 10.0 mi Calm Calm - N/A   Overcast
5:54 AM 8.6 °F - 3.2 °F 79% 29.70 in 10.0 mi Calm Calm - N/A   Overcast
6:14 AM 8.6 °F - 1.4 °F 73% 29.70 in 10.0 mi Calm Calm - N/A   Overcast
6:34 AM 8.6 °F - 1.4 °F 73% 29.70 in 10.0 mi Calm Calm - N/A   Overcast
6:54 AM 8.6 °F - 1.4 °F 73% 29.70 in 10.0 mi Calm Calm - N/A   Overcast
7:14 AM 8.6 °F - 1.4 °F 73% 29.69 in 10.0 mi Calm Calm - N/A   Overcast
7:35 AM 8.6 °F - 3.2 °F 79% 29.68 in 3.0 mi Calm Calm - N/A Snow Light Snow
7:55 AM 8.6 °F - 3.2 °F 79% 29.67 in 4.0 mi Calm Calm - N/A Snow Light Snow
8:15 AM 8.6 °F - 3.2 °F 79% 29.67 in 1.2 mi Calm Calm - N/A Snow Light Snow
8:35 AM 8.6 °F - 5.0 °F 85% 29.65 in 1.8 mi Calm Calm - N/A Snow Light Snow
8:55 AM 8.6 °F -3.7 °F 3.2 °F 79% 29.65 in 1.0 mi South 8.1 mph - N/A Snow Light Snow
9:15 AM 8.6 °F - 3.2 °F 79% 29.64 in 1.5 mi Calm Calm - N/A Snow Light Snow
9:35 AM 8.6 °F -2.6 °F 5.0 °F 85% 29.62 in 1.0 mi South 6.9 mph - N/A Snow Light Snow
9:55 AM 8.6 °F -5.5 °F 3.2 °F 79% 29.62 in 1.5 mi South 10.4 mph - N/A Snow Light Snow
10:15 AM 8.6 °F -1.3 °F 5.0 °F 85% 29.60 in 1.8 mi South 5.8 mph 9.2 mph N/A Snow Light Snow
10:35 AM 10.4 °F - 5.0 °F 79% 29.60 in 3.0 mi Calm Calm - N/A Snow Light Snow
10:55 AM 10.4 °F -0.4 °F 6.8 °F 85% 29.59 in 4.0 mi South 6.9 mph - N/A Snow Light Snow
11:15 AM 10.4 °F -4.1 °F 6.8 °F 85% 29.57 in 2.0 mi South 11.5 mph 16.1 mph N/A Snow Light Snow
11:36 AM 12.2 °F 0.7 °F 6.8 °F 79% 29.55 in 2.0 mi South 8.1 mph 11.5 mph N/A Snow Light Snow
11:56 AM 12.2 °F -1.8 °F 8.6 °F 85% 29.53 in 2.5 mi South 11.5 mph 17.3 mph N/A Snow Light Snow
12:16 PM 12.2 °F -0.2 °F 8.6 °F 85% 29.51 in 1.5 mi SSE 9.2 mph - N/A Snow Light Snow
12:36 PM 12.2 °F -1.8 °F 8.6 °F 85% 29.50 in 1.5 mi South 11.5 mph - N/A Snow Light Snow
12:56 PM 12.2 °F -1.0 °F 8.6 °F 85% 29.48 in 2.5 mi South 10.4 mph - N/A Snow Light Snow
1:16 PM 12.2 °F - 8.6 °F 85% 29.47 in 3.0 mi Calm Calm - N/A Snow Light Snow
1:36 PM 14.0 °F 2.9 °F 10.4 °F 86% 29.45 in 10.0 mi South 8.1 mph - N/A Snow Light Snow
1:57 PM 15.8 °F - 10.4 °F 79% 29.44 in 10.0 mi Calm Calm - N/A   Overcast
2:12 PM 15.8 °F 3.4 °F 10.4 °F 79% 29.44 in 10.0 mi South 10.4 mph - N/A   Overcast
2:32 PM 17.6 °F - 12.2 °F 79% 29.42 in 10.0 mi Calm Calm - N/A   Overcast
2:52 PM 17.6 °F - 12.2 °F 79% 29.41 in 10.0 mi Calm Calm - N/A   Overcast
3:12 PM 19.4 °F 10.4 °F 12.2 °F 74% 29.40 in 10.0 mi SSW 6.9 mph - N/A   Overcast
3:32 PM 19.4 °F - 12.2 °F 74% 29.39 in 10.0 mi Calm Calm - N/A   Overcast
3:52 PM 21.2 °F 12.6 °F 12.2 °F 68% 29.38 in 10.0 mi SSW 6.9 mph - N/A   Overcast
4:12 PM 21.2 °F 10.1 °F 14.0 °F 74% 29.37 in 10.0 mi SSW 10.4 mph - N/A   Overcast
4:32 PM 23.0 °F 11.7 °F 15.8 °F 74% 29.40 in 10.0 mi SW 11.5 mph - N/A   Overcast
4:52 PM 24.8 °F 15.3 °F 15.8 °F 69% 29.40 in 10.0 mi SW 9.2 mph - N/A   Overcast
5:12 PM 24.8 °F 16.9 °F 17.6 °F 74% 29.40 in 10.0 mi WSW 6.9 mph - N/A   Overcast
5:32 PM 24.8 °F 15.3 °F 17.6 °F 74% 29.41 in 10.0 mi WSW 9.2 mph - N/A   Overcast
5:53 PM 24.8 °F 14.0 °F 17.6 °F 74% 29.41 in 10.0 mi WSW 11.5 mph 16.1 mph N/A   Overcast
6:13 PM 26.6 °F 16.2 °F 17.6 °F 69% 29.41 in 10.0 mi SW 11.5 mph - N/A   Overcast
6:33 PM 26.6 °F 15.7 °F 19.4 °F 74% 29.43 in 10.0 mi SW 12.7 mph 18.4 mph N/A   Overcast
6:53 PM 26.6 °F 14.7 °F 21.2 °F 80% 29.44 in 10.0 mi WSW 15.0 mph - N/A   Overcast
7:13 PM 28.4 °F 19.1 °F 21.2 °F 74% 29.44 in 10.0 mi WSW 10.4 mph - N/A   Overcast
7:33 PM 28.4 °F 17.5 °F 23.0 °F 80% 29.44 in 10.0 mi WSW 13.8 mph - N/A   Overcast
7:53 PM 28.4 °F 17.0 °F 21.2 °F 74% 29.44 in 10.0 mi WSW 15.0 mph 21.9 mph N/A   Overcast
8:13 PM 28.4 °F 16.6 °F 21.2 °F 74% 29.46 in 10.0 mi WSW 16.1 mph 27.6 mph N/A   Mostly Cloudy
8:33 PM 28.4 °F 15.8 °F 21.2 °F 74% 29.45 in 10.0 mi WSW 18.4 mph 21.9 mph N/A   Scattered Clouds
8:54 PM 28.4 °F 17.5 °F 21.2 °F 74% 29.44 in 10.0 mi SW 13.8 mph 18.4 mph N/A   Scattered Clouds
9:14 PM 28.4 °F 19.1 °F 21.2 °F 74% 29.42 in 10.0 mi WSW 10.4 mph 16.1 mph N/A   Scattered Clouds
9:34 PM 28.4 °F 18.0 °F 21.2 °F 74% 29.42 in 10.0 mi WSW 12.7 mph - N/A   Mostly Cloudy
9:54 PM 28.4 °F 18.5 °F 21.2 °F 74% 29.42 in 10.0 mi SW 11.5 mph 19.6 mph N/A   Overcast
10:14 PM 28.4 °F 18.5 °F 21.2 °F 74% 29.41 in 10.0 mi WSW 11.5 mph - N/A   Overcast
10:34 PM 28.4 °F 19.1 °F 23.0 °F 80% 29.40 in 4.0 mi SW 10.4 mph - N/A Snow Light Snow
10:54 PM 28.4 °F 18.5 °F 23.0 °F 80% 29.39 in 10.0 mi WSW 11.5 mph 16.1 mph N/A   Overcast
11:14 PM 28.4 °F 18.5 °F 24.8 °F 86% 29.40 in 10.0 mi SW 11.5 mph - N/A Snow Light Snow
11:35 PM 28.4 °F 18.0 °F 24.8 °F 86% 29.39 in 10.0 mi WSW 12.7 mph 17.3 mph N/A Snow Light Snow
11:55 PM 28.4 °F 16.6 °F 24.8 °F 86% 29.39 in 4.0 mi WSW 16.1 mph 21.9 mph N/A Snow Light Snow